Location: Nelson
(41.2830°S, 173.2830°E)
Time: 14:42:38
(UTC+13:00)

ERS-1 Rocket - Pass Details

Date: 24 January 2019
Orbit: 754 x 757 km, 98.5° (Epoch: 19 February)

Event Time Altitude Azimuth Distance (km) Brightness Sun altitude
Rises 22:37:07 0° 152° (SSE) 3,246 6.5 -16.3°
Reaches altitude 10° 22:40:00 10° 136° (SE) 2,311 5.5 -16.7°
Maximum altitude 22:43:49 21° 87° (E) 1,667 4.3 -17.2°
Enters shadow 22:44:01 21° 83° (E) 1,668 4.3 -17.2°
